BJK9260 KSLC-PHOG

Flight info

Callsign BJK9260
Flight time N/A
Altitude 40000
Route DEZRT2 BAM FMG PYE BEBOP R464 BITTA LNDHY1
Aircraft A332/H-VGDW/C

Departure

Time 2026-04-30 14:43
Airport Salt Lake City International Airport (KSLC)

Arrival

Time N/A
Airport Kahului International Airport (PHOG)
Time Latitude Longitude Altitude Speed Heading
2026-04-30 14:37 40.77563 -111.95946 4258 ft 0 kts 181°
2026-04-30 14:39 40.77562 -111.95946 4258 ft 0 kts 181°
2026-04-30 14:39 40.77556 -111.95946 4266 ft 1 kts 181°
2026-04-30 14:39 40.77536 -111.95957 4263 ft 6 kts 211°
2026-04-30 14:40 40.77389 -111.96061 4263 ft 17 kts 183°
2026-04-30 14:40 40.77284 -111.96089 4263 ft 14 kts 232°
2026-04-30 14:40 40.77272 -111.96236 4263 ft 19 kts 269°
2026-04-30 14:40 40.77272 -111.96430 4263 ft 22 kts 272°
2026-04-30 14:41 40.77311 -111.96624 4264 ft 22 kts 288°
2026-04-30 14:41 40.77359 -111.96811 4264 ft 21 kts 289°
2026-04-30 14:41 40.77405 -111.96994 4264 ft 21 kts 288°
2026-04-30 14:41 40.77450 -111.97172 4263 ft 20 kts 288°
2026-04-30 14:42 40.77516 -111.97316 4262 ft 17 kts 342°
2026-04-30 14:42 40.77712 -111.97345 4263 ft 51 kts 354°
2026-04-30 14:42 40.78244 -111.97407 4233 ft 102 kts 355°
2026-04-30 14:42 40.79111 -111.97505 4236 ft 147 kts 355°
2026-04-30 14:43 40.80262 -111.97644 4381 ft 175 kts 355°
2026-04-30 14:43 40.81491 -111.97794 5035 ft 179 kts 354°
2026-04-30 14:43 40.82718 -111.97969 5785 ft 177 kts 351°
2026-04-30 14:43 40.83925 -111.98550 6147 ft 199 kts 327°
2026-04-30 14:44 40.84594 -111.99450 6257 ft 219 kts 300°
2026-04-30 14:44 40.85030 -112.01504 6449 ft 249 kts 276°
2026-04-30 14:44 40.85165 -112.03891 6817 ft 270 kts 272°
2026-04-30 14:44 40.85264 -112.06411 7525 ft 277 kts 274°
2026-04-30 14:45 40.85374 -112.08955 8354 ft 279 kts 274°
2026-04-30 14:45 40.85498 -112.11532 9173 ft 282 kts 275°
2026-04-30 14:45 40.85629 -112.14125 9985 ft 285 kts 276°
2026-04-30 14:45 40.85769 -112.16791 10477 ft 300 kts 276°
2026-04-30 14:46 40.85921 -112.19628 10733 ft 320 kts 276°
2026-04-30 14:46 40.86083 -112.22639 11114 ft 335 kts 276°
2026-04-30 14:46 40.86247 -112.25744 11746 ft 342 kts 276°
2026-04-30 14:46 40.86412 -112.28885 12474 ft 344 kts 276°
2026-04-30 14:47 40.86579 -112.32057 13220 ft 348 kts 276°
2026-04-30 14:47 40.86747 -112.35261 13939 ft 351 kts 276°
2026-04-30 14:47 40.86916 -112.38487 14591 ft 354 kts 276°
2026-04-30 14:47 40.87084 -112.41748 15244 ft 357 kts 275°
2026-04-30 14:48 40.87079 -112.45047 15903 ft 361 kts 269°
2026-04-30 14:48 40.86891 -112.48368 16537 ft 365 kts 267°
2026-04-30 14:48 40.86666 -112.51726 17199 ft 368 kts 267°
2026-04-30 14:48 40.86435 -112.55106 17832 ft 371 kts 267°
2026-04-30 14:49 40.86196 -112.58470 18443 ft 375 kts 267°
2026-04-30 14:49 40.85919 -112.61949 18987 ft 378 kts 266°
2026-04-30 14:49 40.85640 -112.65371 19522 ft 380 kts 266°
2026-04-30 14:49 40.85355 -112.68855 20061 ft 383 kts 266°
2026-04-30 14:50 40.84779 -112.75897 21115 ft 388 kts 266°
2026-04-30 14:50 40.84487 -112.79451 21619 ft 391 kts 266°
2026-04-30 14:51 40.84173 -112.86624 22688 ft 393 kts 272°
2026-04-30 14:51 40.84180 -112.90242 23174 ft 395 kts 273°
2026-04-30 14:51 40.84214 -112.97541 24077 ft 400 kts 273°
2026-04-30 14:52 40.84228 -113.01233 24480 ft 402 kts 273°
2026-04-30 14:52 40.84248 -113.08655 25283 ft 406 kts 273°
2026-04-30 14:52 40.84256 -113.12396 25677 ft 408 kts 273°
2026-04-30 14:53 40.84268 -113.19918 26448 ft 412 kts 273°
2026-04-30 14:53 40.84272 -113.23717 26837 ft 415 kts 273°
2026-04-30 14:54 40.84275 -113.31367 27591 ft 419 kts 273°
2026-04-30 14:54 40.84274 -113.39095 28334 ft 423 kts 273°
2026-04-30 14:55 40.84267 -113.46894 29089 ft 426 kts 273°
2026-04-30 14:55 40.84262 -113.50813 29466 ft 428 kts 273°
2026-04-30 14:55 40.84249 -113.58714 30163 ft 433 kts 273°
2026-04-30 14:56 40.84228 -113.66693 30789 ft 436 kts 273°
2026-04-30 14:56 40.84202 -113.74720 31408 ft 439 kts 274°
2026-04-30 14:57 40.84187 -113.78750 31731 ft 439 kts 274°
2026-04-30 14:57 40.84149 -113.86815 32475 ft 438 kts 274°
2026-04-30 14:58 40.84102 -113.94831 33382 ft 435 kts 275°
2026-04-30 14:58 40.84075 -113.98812 33839 ft 432 kts 275°
2026-04-30 14:58 40.84021 -114.06724 34565 ft 430 kts 275°
2026-04-30 14:59 40.83964 -114.14601 35160 ft 428 kts 275°
2026-04-30 15:00 40.83865 -114.26370 35994 ft 427 kts 275°
2026-04-30 15:00 40.83793 -114.34146 36540 ft 426 kts 275°
2026-04-30 15:01 40.83715 -114.41946 37116 ft 423 kts 275°
2026-04-30 15:01 40.83674 -114.45819 37433 ft 421 kts 275°
2026-04-30 15:01 40.83591 -114.53539 37920 ft 420 kts 274°
2026-04-30 15:02 40.83548 -114.57394 38147 ft 420 kts 274°
2026-04-30 15:02 40.83503 -114.61246 38349 ft 419 kts 274°
2026-04-30 15:03 40.83358 -114.72786 38984 ft 419 kts 272°
2026-04-30 15:03 40.82732 -114.80487 39268 ft 424 kts 267°
2026-04-30 15:04 40.81859 -114.88179 39546 ft 424 kts 266°
2026-04-30 15:04 40.80541 -114.99735 39969 ft 424 kts 266°
2026-04-30 15:05 40.79216 -115.11295 40183 ft 427 kts 266°
2026-04-30 15:06 40.78321 -115.19043 40190 ft 427 kts 266°
2026-04-30 15:07 40.76509 -115.34599 40157 ft 430 kts 266°
2026-04-30 15:08 40.74674 -115.50126 40179 ft 428 kts 266°
2026-04-30 15:09 40.72357 -115.69509 40189 ft 428 kts 265°
2026-04-30 15:10 40.70490 -115.84929 40184 ft 428 kts 265°
2026-04-30 15:11 40.67635 -116.08169 40168 ft 428 kts 265°
2026-04-30 15:13 40.65219 -116.27539 40134 ft 429 kts 265°
2026-04-30 15:14 40.61782 -116.54639 40174 ft 429 kts 265°
2026-04-30 15:17 40.57242 -116.89467 40214 ft 431 kts 262°
2026-04-30 15:18 40.51297 -117.07853 40190 ft 440 kts 249°
2026-04-30 15:19 40.47268 -117.18695 40139 ft 440 kts 249°